Home > Weather > Detmold > Past weeks

Flag for Germany Weather for the Past 2 Weeks in Detmold, North Rhine-Westphalia, Germany

Now
41 °F

Passing clouds.


Feels Like: 30 °F
Forecast: 38 / 46 °F
Wind: 28 mph from Southwest

Location: Paderborn / Lippstadt

Current Time: Feb 8, 2016 at 8:39:32 PM

Latest Report: Feb 8, 2016 at 7:50 PM


Visibility: N/A

Pressure: 29.33 "Hg

Humidity: 76%

Dew point: 34 °F

Location of DetmoldLocation

Historic Weather in Detmold — Graph

°F

Detmold Temperature Yesterday

Maximum temperature yesterday: 50 °F (at 1:50 AM)
Minimum temperature yesterday: 41 °F (at 7:20 PM)
Average temperature yesterday: 46 °F

High & Low Weather Summary for the Past Weeks

 TemperatureHumidityPressure
High54 °F (Jan 25, 11:50 AM)100% (Jan 24, 7:20 PM)30.36 "Hg (Jan 24, 7:20 PM)
Low32 °F (Jan 30, 8:20 PM)44% (Jan 25, 8:50 PM)29.24 "Hg (Feb 8, 2:20 PM)
Average44 °F80%29.96 "Hg
* Reported Jan 24 7:20 PM — Feb 8 7:20 PM, Detmold, Weather by CustomWeather, © 2016

Note: Actual official high and low records may vary slightly from our data, if they occured in-between our weather recording intervals... More about our weather records

Advertising

Detmold Weather History for the Previous 24 Hours

 ConditionsComfort  
Time TempWeatherWind HumidityBarometerVisibility
7:20 PM
Mon, Feb 8
43 °FClear.29 mph71%29.33 "Hg10 mi
6:50 PM43 °FPassing clouds.25 mph66%29.30 "HgN/A
6:20 PM43 °FPassing clouds.25 mph71%29.30 "HgN/A
5:50 PM41 °FPassing clouds.18 mph81%29.30 "HgN/A
5:20 PM37 °FScattered clouds.13 mph87%29.30 "HgN/A
4:50 PM36 °FThundershowers. Scattered clouds.21 mph87%29.33 "HgN/A
4:20 PM45 °FThundershowers. Broken clouds.20 mph71%29.27 "HgN/A
3:50 PM46 °FScattered clouds.24 mph66%29.27 "HgN/A
3:20 PM43 °FScattered clouds.13 mph81%29.27 "HgN/A
2:50 PM46 °FScattered showers. Broken clouds.25 mph66%29.24 "HgN/A
2:20 PM46 °FScattered clouds.21 mph71%29.24 "HgN/A
1:50 PM46 °FPartly sunny.22 mph71%29.27 "HgN/A
1:20 PM45 °FPartly sunny.22 mph76%29.27 "HgN/A
12:50 PM45 °FPartly sunny.22 mph76%29.27 "HgN/A
12:20 PM45 °FLight rain. Partly sunny.25 mph81%29.30 "HgN/A
11:50 AM45 °FScattered clouds.20 mph76%29.30 "HgN/A
11:20 AM41 °FScattered clouds.21 mph87%29.30 "HgN/A
10:50 AM41 °FRain. Partly sunny.29 mph87%29.33 "Hg5 mi
10:20 AM43 °FRain. Partly sunny.20 mph87%29.33 "Hg5 mi
9:50 AM45 °FRain. Partly sunny.21 mph81%29.30 "Hg5 mi
9:20 AM45 °FSprinkles. Partly sunny.23 mph81%29.30 "HgN/A
8:50 AM46 °FBroken clouds.26 mph71%29.30 "HgN/A
8:20 AM45 °FBroken clouds.23 mph76%29.30 "HgN/A
7:50 AM43 °FLight rain. Partly cloudy.25 mph81%29.30 "HgN/A
7:20 AM43 °FRain. Passing clouds.22 mph81%29.33 "HgN/A
6:50 AM45 °FPassing clouds.21 mph66%29.36 "HgN/A
6:20 AM45 °FPassing clouds.23 mph66%29.36 "HgN/A
5:50 AM45 °FPassing clouds.24 mph66%29.36 "HgN/A
5:20 AM45 °FPassing clouds.20 mph66%29.39 "HgN/A
4:50 AM45 °FClear.22 mph61%29.42 "Hg10 mi
4:20 AM45 °FClear.24 mph61%29.42 "Hg10 mi
3:50 AM43 °FPassing clouds.18 mph66%29.45 "HgN/A
2:50 AM43 °FClear.22 mph61%29.47 "Hg10 mi
1:50 AM43 °FClear.22 mph61%29.50 "Hg10 mi
1:20 AM41 °FClear.18 mph66%29.53 "Hg10 mi
12:50 AM41 °FClear.18 mph66%29.56 "Hg10 mi
11:50 PM
Sun, Feb 7
41 °FClear.17 mph66%29.59 "Hg10 mi
11:20 PM41 °FClear.14 mph66%29.62 "Hg10 mi
10:50 PM41 °FClear.16 mph66%29.62 "Hg10 mi
10:20 PM41 °FClear.14 mph66%29.62 "Hg10 mi
9:50 PM41 °FClear.17 mph66%29.62 "Hg10 mi
9:20 PM41 °FClear.16 mph66%29.62 "Hg10 mi
8:50 PM41 °FClear.15 mph70%29.62 "Hg10 mi
8:20 PM41 °FPassing clouds.16 mph66%29.62 "HgN/A
Weather by CustomWeather, © 2016

See weather overviewHow to use our weather pages